{"data":{"norad_id":54208,"epoch":"2026-05-24T23:18:01.473696Z","epoch_age_seconds":77317,"freshness":"FRESH","line1":"1 54208U 22141BD  26144.97085039 -.00005729  00000+0 -34251-3 0  9999","line2":"2 54208  53.2159 346.7300 0001807  90.5770 269.5429 15.08799616197863","mean_motion":15.08799616,"eccentricity":0.0001807,"inclination_deg":53.2159,"raan_deg":346.73,"arg_perigee_deg":90.577,"mean_anomaly_deg":269.5429,"bstar":-0.00034251,"rev_number":19786,"period_min":95.440109125797,"perigee_km":538.61674615749,"apogee_km":541.11691274145,"semimajor_km":6918.0038294495,"source":"CELESTRAK","updated_at":"2026-05-25T13:38:17.687135Z"}}